Theta_e
317 317 318 319 320 320 321 321 322 322 322 323 323 323 323 324 324 324 325 324 324 326 326 326 326 325 325 326 325 323 320 305 304 302 301 302 312 321 321 323 323 323 321 311 307 301 299 299 299 300 298 298 298 298 300 299 298 296 289 287 284 284 286 288 288 289 290 289 291 293 294 293 291 296 298 301 298 298 297 297 299 300 299 300 299 301 302 303
317 318 319 319 319 321 321 321 321 322 323 323 323 323 323 324 324 324 324 324 325 326 326 326 326 325 325 324 324 323 310 307 302 302 301 312 322 325 324 323 322 321 318 305 302 301 299 298 299 299 297 294 300 297 302 298 297 292 289 289 284 286 289 293 291 292 292 290 293 294 294 293 293 295 297 294 292 294 294 295 297 297 299 300 299 300 301 301
317 319 319 319 320 320 321 321 322 322 323 323 324 324 324 324 324 324 325 325 326 327 326 326 326 324 324 324 323 322 312 304 300 297 303 323 324 324 325 323 323 321 311 305 304 305 301 298 298 298 295 295 295 296 298 296 298 294 288 284 284 289 291 292 293 292 293 295 292 293 294 292 294 296 298 294 291 292 292 293 293 295 296 299 297 299 300 300
319 319 320 320 320 321 321 322 322 323 323 324 324 324 324 324 324 324 325 325 325 326 327 325 325 324 323 322 323 314 312 302 294 299 303 322 323 324 325 324 322 318 308 309 308 306 302 300 299 298 297 297 295 295 292 295 294 295 290 286 288 290 289 291 292 292 293 296 294 293 293 292 294 296 295 293 290 290 292 295 296 296 297 298 298 298 299 299
319 319 320 320 320 321 321 322 323 323 324 324 324 324 324 324 324 325 325 324 324 326 325 325 326 324 322 322 319 312 304 292 296 302 304 321 323 324 323 324 323 310 309 306 306 303 302 298 297 299 298 290 295 293 292 293 296 293 289 289 290 290 289 292 292 292 291 292 292 292 292 291 296 297 294 293 289 289 291 295 297 298 299 299 299 298 298 298
319 319 319 320 320 321 322 322 323 323 323 323 324 324 324 324 324 324 325 325 326 326 326 326 326 322 322 320 309 311 300 284 299 300 315 320 321 322 322 322 322 311 312 309 305 303 300 297 298 295 294 294 291 290 292 295 298 290 289 290 291 291 290 292 293 292 291 292 292 291 293 295 294 292 294 293 292 294 296 297 298 299 300 300 301 300 298 297
319 319 319 320 320 321 321 322 322 323 323 323 324 323 323 323 325 325 325 325 326 326 326 326 325 322 320 318 314 307 297 296 300 303 314 319 320 319 320 319 318 311 309 302 300 298 296 295 296 294 296 294 293 293 296 297 298 293 287 290 291 291 292 293 293 291 291 291 292 293 294 293 292 290 293 293 296 297 297 298 299 300 301 302 300 301 299 298
319 319 320 320 320 320 321 321 321 322 322 322 323 324 325 324 325 325 325 326 327 327 326 326 325 322 317 311 305 299 294 295 300 305 312 317 309 307 310 307 307 308 305 302 298 298 298 295 295 299 294 294 294 296 296 297 295 292 290 292 291 292 292 293 292 291 292 291 292 291 291 291 291 291 292 293 296 297 297 298 299 299 299 298 298 300 300 299
319 320 320 320 319 320 320 320 321 322 322 323 324 324 325 324 324 324 324 325 326 325 325 325 323 321 319 308 300 297 293 299 303 305 305 304 304 303 303 304 307 304 300 300 301 300 298 296 298 299 292 294 297 295 293 294 290 293 291 292 291 292 293 292 292 291 291 292 294 291 290 290 291 292 291 294 295 297 298 297 298 298 298 297 297 298 299 300
319 319 320 319 319 319 320 321 321 322 323 323 324 323 324 324 324 323 323 324 325 325 324 324 324 319 312 307 302 291 297 303 303 305 304 303 304 302 302 302 302 301 300 298 300 300 298 297 299 300 299 297 297 293 295 295 292 295 293 294 292 292 292 291 291 291 291 292 291 290 288 289 291 291 287 293 295 296 295 295 296 296 296 297 298 298 299 299
319 319 320 319 319 320 321 321 321 322 322 323 324 324 325 324 324 323 323 324 325 324 325 324 319 314 305 306 295 290 302 304 304 304 304 304 304 301 301 301 302 302 301 299 299 300 301 301 302 302 301 295 297 292 293 292 297 295 294 292 291 291 291 291 291 290 291 290 290 290 290 290 290 291 290 294 296 294 293 294 295 295 296 297 297 298 299 300
319 319 319 319 320 320 321 321 321 321 322 323 324 325 324 323 322 322 324 324 323 325 324 322 320 309 305 297 294 295 304 304 304 303 304 304 304 302 306 303 302 303 301 298 299 301 302 303 304 302 296 300 290 295 293 295 297 295 294 290 291 292 290 290 290 290 291 289 292 291 290 286 288 287 293 295 296 294 293 293 293 294 295 296 296 297 297 298
319 318 318 319 320 320 321 321 321 322 323 323 324 323 322 322 322 321 323 322 321 322 322 321 319 313 305 295 297 303 303 303 304 305 304 304 304 303 303 302 302 303 303 301 302 304 305 303 303 298 300 297 293 288 294 298 296 296 294 290 288 284 285 291 292 291 290 291 292 293 281 282 285 290 293 295 294 293 293 293 294 293 294 295 295 295 296 296
318 318 318 319 320 320 320 321 321 322 322 322 323 322 322 320 321 321 322 321 322 323 321 320 315 312 299 295 302 304 304 304 304 304 302 304 304 303 303 304 302 302 303 302 303 303 306 303 301 300 300 295 292 300 296 294 296 290 292 289 281 280 278 289 291 289 290 292 292 290 278 285 288 290 293 293 294 293 292 293 293 294 294 294 294 294 294 296
317 318 318 320 320 320 320 320 321 321 322 321 322 322 321 320 320 322 321 317 321 321 318 320 316 306 296 298 304 306 315 305 304 302 303 303 301 301 302 303 303 302 302 302 303 302 306 306 302 296 294 299 299 295 288 288 288 290 283 277 278 281 279 287 291 290 288 291 291 289 280 284 288 290 292 295 293 293 292 293 293 294 294 295 295 295 295 296
317 318 319 319 319 319 320 320 320 320 321 321 321 321 322 320 320 320 320 318 319 320 315 312 309 304 296 295 301 312 305 300 300 303 302 303 303 300 301 300 302 302 302 301 303 305 304 302 295 294 295 296 294 292 284 284 281 283 283 275 279 277 279 284 289 291 290 291 291 289 284 286 289 289 290 292 293 294 292 292 292 293 293 294 295 295 295 295
317 318 319 318 319 319 320 319 319 320 319 319 320 320 318 319 319 319 318 319 315 321 313 305 305 306 293 301 305 299 297 301 303 302 302 302 303 302 301 300 299 299 299 300 301 303 303 299 297 298 297 291 289 284 280 276 277 274 280 278 279 280 280 280 286 290 291 291 286 288 284 286 290 293 294 295 294 293 293 294 294 293 293 294 294 294 294 294
317 318 318 318 319 319 319 319 320 320 318 316 316 318 311 318 318 318 312 316 316 313 308 312 306 303 294 300 295 296 300 300 301 300 300 301 303 301 302 299 298 298 299 298 300 298 300 295 297 290 288 288 287 283 279 275 277 278 279 279 280 280 282 282 282 286 290 289 287 285 285 287 289 292 294 294 294 293 293 294 294 294 294 294 294 294 294 294
317 318 318 318 319 319 319 319 320 320 319 318 320 320 320 320 317 308 304 306 305 296 294 295 295 288 286 294 297 298 299 301 302 301 300 301 301 302 301 300 299 297 295 295 296 298 294 292 289 282 280 283 284 283 281 281 283 283 283 280 280 280 282 283 287 290 291 287 284 286 285 288 290 291 293 294 292 292 293 293 293 293 294 294 294 294 294 294
317 318 317 318 318 318 317 319 320 319 318 315 313 314 308 303 300 293 298 301 297 297 297 298 300 300 299 295 296 300 302 303 300 299 299 301 300 299 299 299 299 298 293 289 290 294 292 283 280 281 282 283 288 287 287 288 288 287 284 282 283 281 283 286 287 290 289 286 284 286 286 286 288 290 291 293 293 292 291 291 291 291 291 291 292 293 293 292
317 317 317 317 318 318 319 319 319 318 317 313 311 307 301 299 295 290 293 297 298 300 300 300 299 298 297 297 297 298 296 297 300 297 298 302 299 301 299 300 294 292 290 293 292 297 292 283 280 282 286 287 288 288 288 287 288 287 282 279 281 280 281 286 287 291 290 286 281 284 285 286 288 290 291 293 291 290 291 290 290 291 291 292 293 293 294 294
317 317 317 317 317 318 318 319 318 318 316 306 311 305 301 301 308 305 298 290 297 301 301 301 301 299 298 298 299 298 297 294 296 298 299 301 298 295 294 295 293 290 292 291 287 286 282 282 286 289 289 289 289 289 289 287 285 282 283 280 279 282 282 285 288 289 290 287 284 285 284 286 288 289 291 291 290 290 290 290 291 292 293 293 293 293 294 294
316 316 317 317 318 319 318 318 317 315 306 310 304 302 300 304 305 304 305 294 293 299 299 297 295 296 296 298 298 301 295 291 290 296 296 299 296 296 295 290 289 291 291 291 286 282 282 283 289 290 289 288 287 289 287 286 283 283 281 280 280 281 281 279 283 285 288 285 284 285 282 285 286 287 288 289 290 291 291 293 293 293 292 291 291 292 293 292
315 316 315 316 317 318 319 316 317 309 310 309 307 305 308 306 306 308 306 296 291 296 299 298 299 296 296 296 299 299 296 294 293 292 297 296 293 295 294 292 290 288 288 289 289 287 286 288 289 289 287 288 286 286 285 281 282 281 282 279 280 280 281 281 282 284 284 282 284 283 283 280 280 285 287 289 289 290 290 292 292 292 291 290 292 292 292 292
314 315 315 316 318 318 317 316 306 301 308 305 305 307 305 305 306 308 300 293 292 293 302 303 302 298 297 299 301 300 298 297 295 296 297 296 295 295 293 294 291 285 288 288 286 287 287 289 291 288 289 287 286 285 284 284 281 280 279 283 283 282 281 282 282 282 280 278 283 283 275 274 278 284 285 286 288 288 288 289 288 289 289 290 290 290 291 292
314 314 315 316 317 317 318 306 303 309 306 305 306 306 306 305 306 306 297 284 280 288 299 292 302 296 300 300 299 298 300 294 297 296 299 296 299 295 293 290 292 286 288 286 285 285 288 289 289 287 286 285 283 283 286 284 279 277 281 283 282 281 280 280 280 280 275 275 281 284 275 273 279 283 284 283 285 286 288 287 287 288 289 289 289 290 290 291
313 314 315 316 316 317 303 300 311 304 300 303 304 304 305 305 306 308 295 282 277 289 291 298 298 296 303 299 299 298 282 285 296 300 297 300 297 302 293 287 287 290 292 288 279 279 290 289 286 286 287 283 282 282 285 285 279 278 280 282 281 282 281 280 279 277 278 279 283 282 278 273 273 282 282 281 283 284 285 286 287 287 288 289 289 290 290 290
314 315 315 315 315 316 307 308 309 305 300 305 302 303 304 305 306 306 288 275 274 293 288 292 298 302 301 298 299 290 290 293 288 293 298 299 298 296 294 287 287 286 290 281 277 282 288 285 284 284 281 281 283 285 286 284 282 282 281 284 284 283 282 281 279 277 277 276 275 279 281 277 272 279 283 280 283 282 282 283 286 287 288 289 290 291 290 290
314 315 315 315 314 315 308 311 308 308 305 300 301 304 308 305 302 292 283 273 285 290 302 295 307 297 295 299 294 294 295 295 288 292 299 300 299 295 287 291 290 287 289 288 283 280 287 287 287 287 283 282 285 284 283 285 282 281 283 284 284 283 281 281 278 277 274 273 270 277 280 274 274 279 280 278 279 280 281 283 285 287 288 288 289 290 291 290
315 315 315 314 310 309 308 305 301 304 301 301 302 303 306 302 295 285 275 273 291 283 295 295 293 289 292 288 288 291 292 293 294 295 297 292 295 295 294 296 289 286 282 285 286 286 288 291 290 287 285 288 284 285 284 285 286 285 284 283 282 278 279 279 278 276 272 267 271 276 277 278 272 277 278 281 279 282 281 282 284 285 286 287 287 289 290 291
315 314 313 313 305 306 304 303 305 300 301 302 302 306 303 292 285 276 271 279 291 289 290 287 286 291 287 287 283 287 288 288 290 290 288 292 290 290 289 284 287 280 278 281 280 282 286 285 286 287 290 288 288 285 285 285 286 284 281 280 277 275 275 275 273 272 267 267 272 275 277 278 270 274 278 282 280 278 281 284 284 285 285 287 287 289 289 289
314 314 314 306 305 305 309 303 303 299 302 302 306 302 293 284 282 279 278 292 282 283 284 282 284 286 286 286 283 283 284 285 287 288 286 283 283 284 283 280 279 277 276 279 279 281 282 284 286 288 288 287 282 281 280 282 284 283 280 281 276 269 269 266 269 268 268 268 276 274 277 276 274 276 283 282 281 284 282 285 286 286 285 286 287 289 288 288
311 310 310 306 305 299 300 300 299 301 302 304 305 296 284 278 273 277 278 282 281 285 283 287 284 285 283 280 282 283 284 284 287 287 288 285 284 282 283 284 282 280 274 277 278 276 277 280 284 285 286 288 286 281 279 277 278 281 278 274 268 266 263 262 262 267 266 274 276 277 277 275 276 278 281 281 284 285 285 283 283 285 287 287 288 287 287 288
310 308 302 302 301 301 301 301 302 302 302 302 296 288 284 278 275 287 278 279 283 285 286 284 284 284 283 281 282 282 281 284 284 284 284 281 280 279 280 282 283 280 276 277 277 275 271 272 277 282 280 284 285 284 284 280 280 278 281 279 273 269 267 264 265 265 268 271 278 279 271 267 273 278 284 284 286 286 285 284 283 284 284 285 286 286 286 288
311 305 303 303 301 302 301 301 303 302 304 296 288 281 278 274 278 276 277 280 280 283 284 283 284 280 281 282 283 283 283 279 284 280 282 281 279 278 280 279 283 281 279 274 274 275 278 276 280 285 285 285 284 286 284 282 278 280 280 278 275 273 273 269 266 269 265 270 272 272 274 274 279 284 287 284 284 284 285 286 283 285 285 284 286 287 287 288
310 306 303 300 300 302 301 304 301 304 302 291 287 281 276 278 277 280 280 286 283 280 282 282 280 280 277 278 280 278 284 281 282 279 278 279 282 281 282 282 282 282 278 274 274 271 274 273 279 284 285 284 285 285 283 284 273 278 278 274 279 277 278 270 274 275 274 268 269 271 275 277 281 284 280 283 284 285 284 284 282 284 284 284 285 286 286 288
305 302 297 300 299 302 302 301 302 304 295 290 285 278 279 281 283 282 287 283 283 283 279 276 279 279 275 277 278 277 280 281 278 279 279 281 279 281 281 283 285 282 282 280 274 276 273 277 281 282 282 283 283 283 285 284 283 277 272 278 282 281 276 273 268 266 264 265 269 271 271 274 273 274 281 283 282 284 284 282 282 283 283 285 285 286 287 287
303 300 297 300 303 302 304 301 304 302 290 289 282 287 282 282 285 284 284 281 283 283 277 277 279 281 276 275 278 275 281 278 282 278 280 280 279 283 280 279 283 284 282 280 278 276 280 271 276 280 281 283 283 284 281 285 285 283 280 282 277 269 267 271 269 263 263 262 266 273 270 273 273 275 277 280 279 283 285 283 281 283 283 284 284 286 286 287
302 298 291 299 304 304 303 302 301 294 291 285 278 283 284 281 284 283 284 283 283 282 277 280 278 279 280 275 275 273 276 276 275 280 277 280 276 282 281 281 281 282 282 283 280 280 280 272 276 279 282 282 283 280 275 275 279 284 284 281 280 276 270 269 270 266 267 264 263 267 271 272 273 272 276 280 282 284 283 282 282 282 283 284 285 286 287 287
303 292 289 301 305 305 304 303 296 291 287 282 279 278 284 283 284 284 282 285 283 279 279 279 281 277 279 279 277 278 276 278 278 278 279 280 281 283 280 282 280 281 281 281 282 282 277 278 270 277 279 278 276 279 277 279 275 274 275 273 277 275 277 274 271 270 269 263 263 262 267 272 278 279 280 282 284 284 282 283 283 283 283 284 285 286 287 287
299 293 293 303 304 306 300 298 290 284 282 281 280 282 283 283 285 285 286 286 285 286 281 281 281 278 281 278 277 280 280 277 279 278 280 279 278 276 281 280 280 280 280 280 279 279 273 275 271 275 277 275 278 278 280 279 278 277 275 272 277 273 274 268 270 270 270 269 265 265 268 275 281 286 284 284 285 283 284 283 285 286 285 284 285 286 286 287
289 283 289 300 304 298 295 287 281 280 281 279 281 284 284 292 284 284 283 283 283 284 283 282 282 283 280 282 282 280 281 277 279 277 281 277 282 280 282 279 280 281 278 280 280 282 279 277 274 272 274 278 281 281 280 281 280 279 279 277 275 272 270 268 266 267 267 269 269 270 266 273 284 284 284 284 283 284 285 284 285 286 285 284 286 286 286 286
290 288 299 302 304 297 292 282 281 283 278 282 285 283 284 285 283 284 283 285 283 284 284 284 284 282 283 283 281 281 282 277 281 278 281 280 281 280 281 281 282 280 279 276 280 281 286 272 269 275 277 278 279 277 279 278 281 280 278 277 277 274 273 273 272 270 271 269 268 266 266 273 282 282 282 282 284 285 285 284 284 286 285 285 286 287 286 287
287 290 293 300 301 296 288 280 281 279 279 285 283 284 286 285 282 282 283 283 283 278 282 284 283 284 283 283 281 282 282 275 281 278 278 278 281 282 281 280 281 281 280 280 277 280 273 275 274 267 268 275 277 275 277 278 280 279 277 276 276 275 273 269 272 268 270 270 273 266 266 272 281 280 284 285 285 285 286 287 286 285 285 286 287 287 287 287
291 288 290 294 299 296 287 281 283 280 279 280 279 281 282 283 284 285 284 283 284 280 280 282 284 284 283 284 283 283 282 282 278 278 277 276 277 281 279 279 278 280 281 282 285 280 275 274 272 268 267 266 266 267 270 275 277 279 280 279 277 275 275 273 270 268 268 269 271 265 267 278 283 285 285 285 285 285 287 287 286 283 285 286 286 286 286 286
286 284 286 289 293 291 286 283 282 282 280 276 278 282 280 281 284 286 285 285 283 284 283 285 283 282 283 281 280 280 282 282 280 276 274 277 274 280 280 279 280 279 283 284 282 280 273 276 276 270 268 269 274 275 279 280 278 275 278 279 279 275 275 274 272 268 271 272 269 274 276 277 279 281 282 283 284 284 286 286 285 285 286 285 285 285 285 285
285 284 283 284 285 286 281 282 283 280 282 280 279 280 279 281 283 285 287 283 285 284 286 284 284 281 280 279 280 280 280 280 280 278 275 274 272 276 280 279 280 281 284 280 279 275 272 270 274 277 275 277 279 279 280 280 277 279 277 277 280 277 273 272 272 274 275 269 271 278 278 276 278 281 283 283 284 285 285 285 285 285 284 284 284 284 285 284
285 285 284 287 286 283 280 284 282 282 282 280 279 283 281 279 279 277 283 285 285 283 285 284 281 282 282 282 282 276 280 278 276 275 272 272 273 275 278 281 279 283 282 278 277 276 271 271 270 272 271 277 279 279 280 279 278 278 278 278 278 279 277 272 274 278 278 273 273 278 279 277 280 281 282 282 281 282 283 284 285 284 284 283 283 282 282 283
285 284 285 286 283 280 282 285 284 284 284 279 281 283 280 279 280 282 282 282 284 283 283 278 280 281 281 282 282 277 279 272 273 272 273 273 273 276 273 275 280 278 278 277 276 273 272 268 269 270 274 277 278 278 279 277 277 277 278 279 279 278 278 277 277 279 278 276 279 279 279 279 280 279 281 281 283 282 283 285 284 283 282 282 282 281 282 282
285 280 285 282 280 278 279 280 284 282 283 282 279 282 283 282 282 283 284 283 278 281 282 281 280 281 281 282 282 278 279 278 277 275 273 274 276 274 273 275 274 276 277 276 275 275 275 271 277 272 271 276 278 277 275 277 276 277 279 279 279 278 277 278 276 277 277 277 278 278 277 277 280 282 281 283 282 282 282 282 283 283 282 282 281 281 281 281
286 282 287 287 281 281 280 279 280 279 277 280 279 284 284 282 283 283 283 284 283 282 283 282 281 281 280 283 282 281 282 281 279 280 279 278 275 278 276 275 279 276 274 274 275 273 272 270 270 269 272 274 277 276 276 278 277 277 276 276 277 277 276 278 276 277 275 274 276 276 275 275 279 282 281 281 280 280 279 280 282 283 283 282 281 281 281 281
285 287 284 284 281 281 281 278 278 278 278 281 283 283 283 283 284 284 283 285 283 285 284 284 281 283 279 280 279 281 282 281 282 281 280 279 279 279 278 279 278 276 275 273 272 273 270 270 271 269 272 273 278 277 277 277 274 269 269 277 279 279 279 279 279 278 277 277 274 272 273 279 280 280 279 279 279 279 280 280 281 283 283 282 281 281 281 281
Wind_Speed
6 7 7 7 7 7 7 7 8 8 8 8 8 8 9 9 10 10 10 10 9 9 9 8 8 9 9 6 6 6 7 2 4 3 9 3 5 9 11 11 11 11 9 4 5 7 7 8 8 6 3 0 2 1 2 1 1 2 0 2 3 4 0 2 1 1 1 4 4 5 6 6 4 2 2 1 1 1 3 3 5 4 5 4 2 4 9 12
7 7 7 7 7 7 7 7 8 8 8 9 8 8 9 9 9 10 9 9 9 9 8 8 8 8 6 5 2 4 4 1 1 5 2 3 7 9 9 8 9 8 7 1 4 3 5 8 8 8 6 4 0 1 1 1 1 1 1 1 5 1 1 0 1 2 3 2 8 5 5 6 5 6 2 3 3 3 5 6 2 6 8 5 3 6 10 12
7 7 7 7 7 7 7 7 7 8 8 9 9 8 9 9 9 9 9 9 9 8 8 7 7 6 5 5 4 4 2 2 1 5 2 6 7 6 7 6 6 5 1 0 1 1 2 4 7 4 4 2 1 2 1 0 1 1 1 2 2 2 1 3 3 3 3 3 5 3 5 4 3 6 1 4 6 4 11 8 5 8 11 9 4 6 8 11
7 7 7 7 7 7 7 7 8 8 8 9 9 9 9 9 8 8 8 8 8 8 7 7 6 4 3 2 2 1 1 2 3 2 3 5 7 6 3 4 4 2 1 2 3 2 3 4 6 2 2 1 3 2 3 2 1 1 1 2 1 2 1 2 3 3 4 2 2 4 2 5 3 5 5 4 4 9 10 9 12 14 14 9 6 7 8 11
7 8 8 8 8 7 7 7 7 8 9 9 9 9 8 8 8 8 8 8 8 8 7 7 5 4 3 4 3 1 3 2 1 2 5 10 9 9 5 4 3 0 1 3 4 4 2 4 3 2 0 2 3 2 0 1 1 1 1 2 0 2 1 2 2 3 3 5 5 4 5 5 1 1 6 5 8 11 8 8 10 12 11 10 9 10 10 12
7 8 8 8 7 7 7 7 8 8 9 9 9 9 8 8 8 8 8 8 8 7 7 6 5 3 3 3 2 1 1 1 2 4 10 11 11 11 7 4 1 0 1 3 1 5 5 4 0 1 1 1 1 1 3 2 1 1 1 1 1 1 1 2 1 4 3 3 3 5 4 1 3 4 3 7 13 8 6 6 10 14 14 12 9 9 10 13
8 7 7 7 8 8 8 7 8 9 9 9 9 8 9 9 8 8 8 7 7 7 7 7 5 3 3 4 1 2 4 2 2 8 11 11 12 12 8 3 3 1 1 3 4 3 3 4 0 4 1 1 1 1 1 2 3 2 2 0 1 2 0 2 0 4 2 5 1 2 3 3 3 7 3 8 14 12 9 6 6 7 6 6 7 8 12 14
7 7 7 7 8 8 7 8 9 9 9 8 8 9 9 9 8 7 8 7 6 6 7 6 5 3 4 1 2 2 4 2 6 7 11 11 10 10 8 1 1 1 3 2 3 3 2 4 3 0 2 1 1 1 3 2 4 1 1 1 1 0 1 0 1 1 1 2 1 3 1 5 3 4 3 15 14 11 11 9 10 10 10 10 9 9 8 9
7 7 7 7 8 8 8 8 8 8 8 8 8 8 9 9 9 8 7 7 6 6 7 4 1 2 3 1 1 1 2 3 5 8 9 8 10 8 7 4 0 2 3 4 1 2 0 3 3 0 2 0 0 2 3 2 2 0 1 1 1 1 1 1 2 3 3 2 0 2 6 6 7 6 11 22 19 14 12 9 12 13 13 13 11 11 10 10
7 7 7 7 7 7 7 7 8 8 8 8 8 8 8 9 8 7 7 6 5 4 5 2 3 2 1 1 1 3 2 6 6 7 8 8 11 7 8 5 5 4 3 3 6 6 3 2 1 1 6 2 2 1 0 1 2 1 1 0 1 2 1 3 3 3 3 2 1 3 5 4 4 3 9 7 13 9 9 11 11 11 14 16 12 10 11 12
6 7 7 7 6 6 6 7 7 8 8 8 8 8 8 8 8 7 6 6 6 3 2 2 1 1 2 1 5 1 4 2 2 5 8 8 10 6 5 6 5 5 2 5 3 1 1 1 3 0 2 1 1 2 1 2 1 2 1 3 4 5 4 3 3 5 1 3 4 5 8 6 4 1 15 19 11 5 6 11 10 10 13 12 12 12 10 11
6 6 6 6 6 7 7 7 7 7 7 8 8 8 7 7 6 5 5 6 7 4 2 2 1 1 1 5 7 1 5 4 4 5 5 5 7 5 1 3 4 4 3 2 2 3 1 1 2 2 1 0 1 0 0 2 1 0 1 2 5 4 3 4 6 4 3 3 1 3 8 6 4 8 20 18 15 4 5 7 9 11 12 12 11 11 9 12
5 6 6 6 7 7 8 8 8 8 8 8 8 7 7 6 5 4 4 5 4 3 1 4 2 1 2 6 2 7 5 2 4 7 5 5 5 4 2 2 4 4 3 3 1 3 3 1 3 4 1 3 1 1 1 2 1 1 1 2 6 5 5 10 4 1 5 3 3 0 7 7 7 15 14 13 8 4 6 10 10 8 10 10 10 10 10 9
5 6 6 7 8 8 8 8 8 7 7 7 7 7 6 5 4 5 4 5 7 5 4 1 1 2 4 0 5 5 4 2 4 4 4 4 7 7 6 7 5 1 1 2 1 1 4 4 8 4 2 2 0 1 1 2 1 1 2 2 1 4 3 3 4 4 3 2 3 2 3 14 8 7 11 10 9 6 9 11 10 10 9 8 7 7 8 9
6 6 7 7 7 7 8 7 7 7 7 8 7 5 5 6 5 5 6 6 5 2 6 2 1 2 3 0 3 5 3 0 2 4 2 5 4 6 7 8 9 3 2 2 0 2 1 2 2 3 0 0 1 1 2 1 1 1 3 3 5 0 7 8 2 6 4 1 3 3 5 11 13 10 9 10 5 3 8 9 10 10 9 9 8 8 8 9
4 5 6 7 7 7 7 8 7 7 7 6 5 4 5 6 7 7 6 5 10 7 2 1 2 2 5 1 0 0 1 2 4 5 2 3 1 3 5 6 8 4 2 2 2 1 2 6 3 2 1 2 2 0 4 2 2 3 2 4 5 4 6 10 2 3 4 2 1 4 8 9 14 4 5 3 8 11 10 10 9 10 10 9 8 8 8 8
4 4 6 6 6 6 6 7 7 7 5 5 4 4 5 7 9 9 11 7 5 2 1 1 4 3 3 3 1 2 3 2 2 3 7 3 2 2 4 5 2 6 4 5 2 2 2 1 1 2 2 2 2 2 3 5 6 2 4 1 2 3 5 5 7 2 1 1 3 2 4 11 17 21 19 14 7 10 13 17 14 10 8 8 7 7 8 8
4 4 5 5 5 5 5 6 7 6 6 5 2 2 3 7 8 9 8 3 1 1 1 0 2 3 1 3 2 4 4 4 5 5 4 4 1 3 1 1 3 5 6 3 1 0 2 1 2 1 2 6 7 8 7 4 2 3 4 5 8 4 5 7 4 3 1 1 3 4 6 16 19 18 20 15 6 9 14 14 13 12 10 9 8 8 9 8
3 4 4 5 5 5 6 7 7 7 8 9 7 5 7 5 3 1 5 4 3 3 3 5 6 3 0 4 5 6 5 5 1 3 7 7 3 1 1 2 2 2 4 2 1 1 2 2 3 4 3 7 5 4 1 3 1 4 4 4 4 5 7 10 7 3 1 2 4 6 9 15 18 18 22 21 5 8 12 10 8 8 8 8 9 10 9 8
3 4 5 6 6 7 7 8 7 6 9 6 3 1 2 3 4 2 7 7 5 3 3 1 1 2 1 5 5 6 6 3 1 2 8 3 6 5 4 1 1 2 2 1 5 1 1 5 2 1 3 3 2 1 2 2 2 3 2 1 8 6 8 6 6 3 2 2 6 9 7 10 19 18 20 20 13 9 7 8 7 5 4 4 6 7 7 7
3 4 5 6 7 7 8 7 5 5 5 2 1 2 0 0 1 2 1 2 1 2 1 1 1 1 0 3 3 6 5 3 0 3 6 7 1 0 2 2 2 2 2 1 1 2 3 4 2 3 1 2 2 2 1 3 1 2 4 4 8 4 8 5 4 2 3 4 6 6 10 14 17 17 17 17 11 8 7 7 7 7 7 6 9 10 8 5
3 4 5 5 5 6 6 5 5 5 1 1 1 2 1 1 1 1 2 2 2 1 2 3 1 1 3 2 1 3 3 2 5 4 5 9 4 2 4 4 2 2 3 4 4 8 5 3 1 1 2 2 3 3 2 1 4 3 1 4 5 8 5 9 2 2 2 8 12 7 12 15 19 15 15 12 6 5 5 4 2 9 12 12 12 12 11 10
3 4 4 5 5 5 6 5 4 3 2 3 1 2 1 1 1 1 1 4 1 1 2 2 3 2 3 3 1 2 2 4 2 7 8 6 6 5 3 5 6 3 4 6 5 4 5 3 2 2 3 4 3 1 3 4 2 3 6 6 7 5 7 8 4 6 12 1 8 10 9 14 9 8 5 4 6 4 8 14 13 9 10 10 7 6 8 8
4 4 5 5 5 5 6 6 5 2 1 2 3 1 0 1 3 2 1 0 1 2 0 1 1 0 1 2 2 3 1 2 1 9 6 5 5 4 2 3 5 4 6 4 2 1 1 1 1 3 3 2 4 5 4 5 8 4 2 3 5 5 3 2 9 10 5 6 1 6 10 8 6 12 10 8 8 12 10 13 11 8 5 5 7 8 6 6
2 3 4 4 4 5 4 5 2 3 1 3 1 0 2 1 1 1 1 2 2 1 0 1 1 0 2 2 2 1 1 0 1 2 2 4 8 4 1 0 2 3 5 3 3 5 3 1 0 4 3 3 4 7 4 3 7 8 4 1 2 3 6 6 6 11 9 5 2 11 7 4 6 11 5 5 8 12 7 9 5 5 6 8 8 6 6 6
2 2 2 2 3 3 4 2 1 1 1 1 1 3 4 4 2 1 2 2 1 4 2 3 1 2 2 2 1 1 0 2 0 1 2 1 3 1 1 3 1 5 6 4 1 1 1 2 2 1 3 5 5 2 1 3 5 5 6 1 4 5 4 5 7 6 6 5 8 4 4 6 7 8 5 4 7 7 6 6 4 4 4 5 5 5 5 5
3 2 1 1 2 2 2 1 1 1 1 2 2 5 4 4 2 1 1 2 5 1 2 2 2 1 2 3 3 2 4 4 3 2 3 3 4 0 3 5 4 1 1 0 3 3 2 3 5 4 4 5 5 8 3 3 3 5 2 1 4 8 8 5 1 2 5 2 8 2 5 3 7 9 3 3 5 6 6 6 4 3 2 3 3 4 5 4
1 2 2 1 0 3 1 0 1 0 1 0 3 4 5 4 2 1 3 2 3 2 2 4 0 2 3 6 7 5 2 4 3 4 1 3 1 3 5 3 3 3 3 5 6 2 4 4 4 6 4 5 5 2 4 1 0 6 4 0 9 8 7 2 2 3 3 1 6 7 1 1 4 9 7 4 5 5 4 4 3 3 3 3 4 4 4 4
3 3 3 2 2 2 1 1 1 1 0 3 4 4 4 3 1 3 2 4 2 2 3 0 2 2 7 7 6 4 1 3 2 3 4 0 7 1 4 2 1 1 2 3 2 2 2 1 1 1 3 5 4 4 3 2 3 5 5 6 7 1 2 3 2 1 2 2 4 5 1 1 8 6 7 4 3 2 1 3 4 3 3 4 2 3 4 5
4 3 3 3 3 2 1 2 2 0 2 3 4 4 1 2 2 2 4 3 1 2 1 3 3 6 4 5 3 8 6 4 1 4 5 4 12 7 2 1 3 3 4 6 3 4 1 3 5 3 1 1 3 5 2 2 5 5 6 4 7 5 2 1 1 1 1 2 4 5 3 2 4 7 1 3 0 2 3 5 4 4 3 3 3 2 4 3
5 5 5 2 2 2 1 1 1 2 3 3 4 1 1 4 1 4 4 1 1 2 3 4 2 5 6 8 7 6 2 3 6 4 5 6 13 8 6 2 6 4 7 7 7 7 2 2 1 1 2 3 1 5 2 1 0 4 4 5 6 3 5 1 4 3 3 6 5 4 1 0 2 7 6 4 4 4 5 0 2 4 2 3 3 3 3 5
9 8 5 6 1 2 0 1 2 4 3 4 2 2 3 1 8 8 2 5 1 4 2 5 2 2 6 1 4 7 4 7 3 5 5 4 8 16 13 9 6 9 9 10 8 7 4 2 2 5 2 3 2 3 6 4 4 9 5 7 9 6 7 7 7 9 2 3 8 1 3 6 4 8 8 10 5 7 8 2 2 3 3 3 2 2 3 3
13 13 14 8 2 3 1 1 2 3 3 2 1 2 2 8 4 3 1 5 0 1 3 2 4 5 5 2 7 5 2 5 5 5 2 2 8 4 5 10 6 4 3 3 4 8 7 4 5 3 3 0 1 8 8 7 6 8 5 2 5 5 4 3 5 2 3 10 5 4 1 3 5 7 6 6 7 10 8 6 4 3 1 0 2 5 5 6
6 8 10 2 7 3 1 0 1 2 3 2 2 5 9 11 1 1 1 1 2 2 2 3 6 5 3 5 3 5 7 1 5 4 5 2 7 5 7 6 7 7 2 2 7 3 7 7 4 5 3 2 2 1 0 4 4 5 2 1 2 2 0 2 1 4 7 9 17 4 2 3 6 4 5 7 10 8 7 3 2 4 1 1 1 5 5 6
8 11 8 1 3 1 1 0 0 0 1 7 12 7 9 1 0 1 3 3 3 3 2 3 3 3 4 3 2 3 1 2 3 3 7 7 6 2 5 7 7 3 1 3 2 1 1 5 10 1 4 1 2 1 1 0 0 3 1 4 6 2 4 2 5 3 3 8 9 6 2 2 5 6 12 3 2 5 6 5 3 1 3 3 5 5 4 5
5 0 2 3 2 2 1 0 1 1 1 8 12 11 7 0 0 1 0 1 1 2 8 6 5 7 3 6 1 6 6 2 6 3 2 4 0 4 1 1 4 4 4 3 1 3 3 3 2 8 4 1 1 0 1 1 3 5 4 1 3 4 3 1 5 3 1 2 8 3 7 6 6 10 5 4 5 7 6 6 3 1 2 3 4 4 4 5
2 1 6 3 3 2 0 0 1 1 9 10 12 4 1 0 1 1 2 1 1 1 2 5 5 3 5 5 3 8 6 2 2 3 3 1 3 4 2 1 3 2 1 2 5 1 1 10 9 1 4 2 2 2 1 1 1 1 1 4 4 3 4 3 2 4 2 1 8 3 7 9 5 9 6 8 8 11 7 4 5 3 3 2 4 4 4 4
1 2 2 4 4 2 1 0 0 5 5 14 9 7 0 2 0 1 0 1 1 1 4 3 1 6 2 2 7 6 9 7 10 4 1 3 0 1 3 3 4 3 3 2 1 3 1 6 7 2 4 6 2 0 2 0 0 1 2 0 3 3 3 3 2 3 4 5 6 10 4 6 5 9 5 7 6 12 13 7 5 5 4 4 4 5 4 4
1 2 3 4 2 2 1 0 7 8 10 13 1 6 1 1 1 0 4 3 1 1 3 1 0 2 1 3 2 1 3 3 3 3 3 2 2 2 2 1 2 3 4 2 0 2 1 1 8 3 2 6 1 3 4 4 2 1 2 2 0 2 5 1 2 2 4 6 2 10 7 8 4 5 5 8 8 12 9 7 6 5 5 5 5 4 4 4
1 3 3 1 3 2 1 1 10 9 11 9 1 3 2 1 1 1 1 1 0 2 0 1 1 1 3 0 0 2 2 1 0 3 3 2 0 1 2 4 0 9 4 2 1 0 2 1 3 8 2 4 4 1 2 1 5 3 2 2 2 1 3 1 1 3 4 3 4 3 9 8 9 5 4 10 13 10 5 8 7 6 6 5 5 5 4 5
1 5 1 3 9 1 4 15 14 10 8 1 3 3 1 0 0 1 2 2 0 1 1 1 1 3 1 3 3 0 1 2 1 1 0 1 3 3 1 0 1 5 5 1 3 2 1 3 3 7 11 4 8 3 3 2 2 2 2 3 3 0 8 5 10 1 0 2 3 1 11 13 14 9 5 9 10 5 6 7 11 12 11 5 6 5 4 5
3 4 3 7 10 5 10 12 5 2 6 5 2 0 0 1 1 1 1 1 2 0 2 2 0 1 1 0 1 2 1 2 1 1 0 3 1 1 2 5 4 1 1 0 1 0 1 1 1 7 5 10 14 6 1 2 2 3 3 4 2 1 3 2 4 7 3 4 2 5 3 15 13 3 5 7 4 6 10 8 11 13 11 6 6 5 5 5
5 3 2 7 5 6 16 8 3 7 4 1 2 1 1 1 1 2 3 2 1 1 1 3 1 1 1 0 1 1 1 1 0 1 1 0 1 3 2 3 2 3 1 4 1 0 2 1 2 7 8 8 9 3 2 2 2 2 2 1 1 3 5 7 7 4 4 5 2 2 4 13 11 2 4 3 7 9 8 7 10 12 8 6 7 8 7 10
3 3 4 6 6 7 11 5 4 2 2 0 2 1 1 1 2 4 2 1 1 3 1 0 2 1 1 0 1 1 0 1 1 2 2 0 1 1 2 4 1 0 1 0 1 3 2 1 2 5 7 11 11 6 2 2 1 2 4 6 4 1 2 1 1 1 1 8 9 3 11 12 9 3 7 13 14 13 14 16 11 11 6 7 9 10 11 13
3 1 4 7 11 10 5 4 9 6 1 3 1 4 2 3 0 1 1 1 1 1 1 1 1 0 1 0 0 0 1 1 2 1 0 1 2 0 6 4 2 1 0 3 1 2 1 3 1 1 4 8 11 11 11 15 13 11 7 0 0 4 0 7 4 1 3 6 4 4 8 14 14 13 17 17 15 16 18 19 12 6 7 12 14 13 13 12
2 4 6 8 9 8 6 2 6 8 6 2 5 1 2 2 1 2 3 0 1 1 0 0 1 1 1 3 3 2 1 1 1 2 2 2 2 1 4 3 1 1 0 1 1 1 0 1 2 5 5 6 10 8 7 2 7 9 18 19 19 3 5 3 1 2 9 6 4 13 14 17 18 18 16 16 16 20 22 18 14 14 16 15 13 12 12 12
2 6 1 1 3 9 4 5 2 3 2 3 4 0 6 1 0 1 5 0 0 0 0 2 2 2 3 3 1 2 1 4 2 0 2 3 2 2 2 3 2 3 1 1 2 1 1 1 6 6 7 11 11 9 11 6 9 14 14 18 20 9 4 3 6 13 4 4 12 13 14 12 16 17 18 21 23 24 22 18 19 18 17 16 15 16 20 20
5 1 2 1 5 0 5 5 4 5 3 5 1 1 1 1 4 0 2 0 1 0 0 0 5 3 1 0 0 1 5 4 1 2 3 1 3 4 3 1 1 1 3 0 1 0 1 1 6 6 9 11 14 11 13 11 8 11 14 18 17 17 13 10 12 16 10 7 15 18 17 16 16 18 24 23 23 21 23 21 17 17 18 19 22 26 25 22
5 3 2 0 4 1 1 1 2 6 9 4 2 3 1 3 2 1 0 3 2 3 4 1 4 5 5 2 1 1 1 4 4 3 1 4 2 5 4 2 0 2 1 0 1 1 1 4 6 6 6 9 14 11 11 9 5 8 13 18 13 11 14 13 15 15 10 12 16 16 16 16 11 17 15 16 18 20 18 18 14 17 17 17 21 22 22 22
1 3 1 5 6 4 0 0 1 6 7 3 4 1 1 0 0 2 1 1 2 2 1 2 5 6 5 2 0 1 1 2 3 3 4 2 7 1 2 2 2 1 0 1 0 1 2 6 5 3 4 11 11 7 3 2 4 13 20 16 14 11 11 11 5 6 4 7 11 12 10 8 11 15 16 16 18 19 22 23 13 12 13 19 21 18 17 21
1 2 6 9 6 3 2 2 3 4 4 7 5 1 2 1 0 1 0 0 1 1 1 1 4 6 2 1 0 2 3 3 4 9 6 2 5 2 0 1 2 3 5 2 1 2 1 5 3 2 8 13 6 2 6 8 9 12 14 10 9 14 12 10 8 6 6 8 11 13 11 11 13 17 18 17 23 23 21 21 13 12 12 13 15 16 16 22
3 1 6 7 6 2 3 2 2 4 5 1 1 0 1 1 1 1 1 1 0 0 1 1 2 1 5 3 3 3 2 2 6 6 4 4 3 5 3 2 1 0 4 1 0 1 1 1 5 4 9 10 13 8 13 13 7 7 5 13 14 11 7 11 7 13 10 4 9 9 8 12 13 16 17 17 23 22 21 20 20 15 15 20 20 18 23 22
Wind_Direction
300 301 304 305 308 313 312 314 309 309 314 315 314 317 315 313 309 312 311 315 314 316 321 319 312 307 321 351 15 341 357 72 15 23 46 222 209 263 281 284 286 292 306 338 349 22 344 342 342 328 323 356 253 104 234 52 136 67 103 144 302 217 352 281 262 274 247 134 171 168 177 137 189 217 207 186 322 162 269 264 287 299 253 237 176 161 138 140
289 293 293 297 298 301 303 300 302 307 310 307 308 311 310 306 309 309 306 309 312 320 320 319 314 312 333 359 346 345 42 82 109 62 119 234 241 264 273 271 277 290 315 32 34 359 7 327 322 342 347 352 312 132 76 284 68 119 218 120 235 237 243 92 315 341 1 246 181 178 175 165 209 152 235 169 273 227 265 256 239 276 280 299 113 139 138 146
278 282 285 286 289 290 293 296 301 304 304 302 304 307 305 304 306 305 306 309 313 316 316 316 320 328 343 359 336 346 43 349 102 9 307 218 261 261 245 252 263 292 8 297 261 298 245 263 286 336 303 316 312 210 106 255 62 241 122 272 252 223 213 14 47 330 352 148 165 143 205 164 216 170 112 205 231 236 230 232 258 246 253 246 200 160 157 158
271 273 276 279 284 288 292 296 299 302 301 300 301 304 304 303 302 303 302 309 316 316 312 321 332 345 1 45 13 358 80 57 36 286 295 308 329 326 282 252 248 276 2 198 230 279 272 291 284 282 303 4 288 46 57 290 80 293 79 187 246 297 14 313 27 348 318 116 193 171 177 198 233 200 150 210 227 243 241 221 208 222 230 233 201 187 172 174
268 271 274 279 284 289 290 295 299 300 296 295 300 301 299 298 299 299 311 317 317 310 315 313 332 1 3 357 350 69 60 48 279 282 296 327 325 323 302 265 244 195 194 251 310 255 257 265 286 342 83 282 348 21 278 321 134 67 193 189 245 333 89 281 23 351 340 299 145 145 143 219 227 228 186 168 201 234 209 227 215 229 228 217 218 198 189 189
268 271 276 283 284 287 290 294 300 294 290 294 300 302 301 301 305 312 314 313 307 303 302 295 298 352 354 8 15 61 87 75 274 320 309 319 322 320 300 264 224 129 13 356 4 303 338 315 278 327 319 119 338 91 279 333 106 307 305 255 36 290 168 312 347 308 16 359 78 142 216 180 186 252 233 197 216 237 195 195 210 218 220 217 212 206 198 200
269 274 279 282 285 286 295 300 294 290 294 301 305 307 308 309 305 309 308 304 305 303 294 291 305 359 326 1 351 78 103 188 337 286 314 315 322 319 304 266 99 26 26 2 345 14 326 319 350 251 205 60 327 105 304 314 3 113 217 301 316 80 125 196 222 294 336 69 97 227 332 216 212 252 241 241 240 237 230 231 220 218 216 195 196 209 208 205
276 279 282 285 290 297 300 298 293 294 300 305 306 305 307 307 306 305 300 301 301 296 303 306 338 6 7 16 45 353 47 307 290 279 307 322 329 318 335 277 160 26 6 280 256 324 348 326 314 273 68 163 225 98 317 37 16 68 298 286 263 103 228 198 212 280 303 289 222 42 333 249 213 223 306 259 250 242 237 226 241 241 240 246 238 236 221 204
286 290 293 294 298 301 299 296 294 297 303 304 307 307 306 306 310 311 304 296 306 332 340 11 47 187 200 101 120 49 330 254 256 287 314 337 329 330 10 7 328 312 285 303 18 334 103 284 38 54 245 74 291 92 329 72 323 149 217 280 286 224 214 227 266 243 216 267 207 322 261 267 258 281 267 257 262 237 234 224 225 231 241 244 238 229 230 233
300 301 299 298 299 298 294 293 300 305 308 311 308 309 308 306 313 311 298 301 306 354 14 73 132 169 85 83 47 60 273 250 278 297 318 342 340 357 0 347 2 331 349 345 42 21 60 282 96 332 121 77 87 56 308 105 224 170 277 226 199 241 231 263 213 253 216 210 167 212 265 265 275 110 278 261 238 250 227 229 224 219 231 236 233 228 226 224
309 307 305 304 301 301 305 307 307 309 310 308 307 305 306 310 313 305 305 301 299 323 55 88 180 352 13 70 86 88 238 347 275 317 328 351 348 4 357 347 355 6 77 42 67 339 277 286 325 314 46 228 74 325 75 222 30 292 172 351 306 287 267 257 236 268 196 300 217 207 260 250 251 210 244 260 261 197 208 236 233 224 231 232 230 229 224 223
317 315 313 314 318 320 322 321 315 310 311 311 308 305 303 300 307 309 304 304 296 303 332 148 154 85 96 68 74 157 269 244 307 314 332 358 344 288 344 359 38 37 64 84 343 308 269 276 65 64 217 235 326 1 349 259 47 253 82 335 294 325 309 241 212 231 141 256 173 184 273 272 196 223 239 245 262 228 237 241 238 232 232 234 234 231 228 224
331 331 328 327 331 332 329 326 319 317 313 305 298 298 297 297 304 309 293 315 279 315 320 113 165 111 77 36 250 239 252 298 340 324 323 19 336 336 346 28 64 69 93 99 324 323 349 166 103 79 316 95 166 98 247 70 290 17 10 184 334 2 318 260 187 203 159 245 187 328 331 270 235 233 254 266 267 253 243 251 248 238 232 233 232 229 233 232
340 341 339 338 340 339 332 324 318 305 298 294 298 307 311 309 300 301 313 277 291 321 322 310 57 72 81 207 259 242 261 38 340 2 336 334 21 321 340 346 350 22 51 94 279 257 67 58 91 128 91 84 237 257 67 319 45 200 267 72 252 7 278 293 177 172 172 204 162 80 209 290 271 256 270 264 269 238 237 242 243 243 242 237 232 231 231 236
349 344 340 340 339 331 327 318 314 311 307 304 294 284 283 292 293 310 330 335 320 304 303 347 115 70 49 279 264 298 42 80 343 305 283 10 8 338 342 328 323 297 229 161 185 277 169 83 65 35 66 276 41 56 339 0 334 263 42 300 327 103 276 310 284 161 197 301 121 95 271 250 283 286 272 284 325 257 249 250 245 243 242 241 240 240 242 243
346 340 331 337 333 329 324 321 314 302 294 277 271 300 306 304 314 309 296 249 280 296 295 56 342 110 103 21 292 191 29 22 318 291 297 24 358 258 275 293 283 299 239 276 206 349 33 89 80 176 108 4 49 102 5 27 335 359 82 282 294 328 279 344 290 207 214 88 298 164 254 313 299 224 260 280 336 317 291 272 262 251 246 242 238 235 238 246
337 334 334 330 326 321 317 313 306 300 309 327 345 348 321 304 310 304 285 271 303 266 51 42 337 94 84 249 327 33 314 290 322 345 336 302 206 237 343 340 350 350 335 316 339 33 307 50 290 37 48 76 354 87 38 19 337 317 28 315 251 298 326 315 300 334 319 127 264 291 248 249 263 290 291 291 281 274 267 268 264 257 249 244 242 241 239 238
333 329 328 318 310 319 308 306 309 318 332 344 341 290 307 319 328 337 357 30 308 49 54 116 85 22 329 16 14 300 281 302 329 293 296 269 89 4 25 329 304 352 332 339 27 139 326 324 42 196 27 11 22 29 68 315 252 277 329 344 324 321 295 251 322 280 5 357 250 295 274 272 276 284 291 290 280 261 267 264 263 259 255 253 252 250 245 238
314 313 309 315 314 314 319 320 329 353 349 310 279 271 279 293 331 64 48 352 42 357 27 329 28 90 278 292 286 299 297 242 304 31 327 354 335 306 293 212 260 336 336 61 299 50 342 56 25 40 355 345 7 95 122 224 192 241 231 245 267 303 303 306 275 292 115 323 293 262 261 288 295 301 301 306 315 272 274 280 279 274 264 256 257 255 250 241
315 316 326 331 331 332 334 343 353 2 358 355 9 7 19 14 6 342 346 29 67 123 157 268 216 259 330 338 325 275 264 51 352 302 346 328 344 351 341 144 323 65 68 41 306 23 98 76 72 300 254 232 264 162 190 221 210 275 312 325 279 279 285 277 275 280 0 334 252 262 276 285 292 294 296 297 322 302 289 292 290 288 290 319 299 302 326 331
324 334 339 339 344 341 341 348 357 0 15 38 357 62 74 190 54 18 316 308 260 81 77 296 128 129 252 257 303 2 19 323 122 327 352 300 167 58 326 37 31 21 314 216 193 308 67 61 325 228 230 239 267 262 356 355 346 262 295 324 302 298 289 268 299 12 339 35 283 302 304 296 290 295 297 304 326 314 323 320 332 353 20 25 32 26 13 329
343 343 346 353 344 343 337 352 343 352 71 118 82 119 147 178 182 195 119 23 341 303 14 300 10 6 307 226 234 131 116 359 339 313 329 20 318 70 311 71 62 2 326 1 18 15 41 66 282 284 336 345 318 300 291 218 305 348 333 296 335 293 247 291 352 11 8 360 289 318 322 303 298 304 300 308 304 284 313 295 349 53 45 44 42 41 35 27
352 351 352 349 349 331 342 326 349 30 27 30 52 71 111 269 349 271 111 123 42 294 45 7 14 352 332 315 323 77 53 29 311 327 348 5 353 64 346 28 357 327 19 28 57 13 22 308 285 318 17 4 337 351 342 348 28 337 347 352 307 296 11 321 290 360 333 258 291 319 312 294 304 304 312 318 3 351 20 49 59 60 61 56 56 64 51 41
345 350 343 341 334 334 327 329 303 341 8 129 100 127 279 33 22 30 100 179 196 309 100 227 148 214 317 21 327 47 86 308 50 329 349 26 32 291 55 41 358 39 351 15 84 89 186 268 298 6 349 35 333 342 30 41 332 316 275 255 295 334 316 207 304 327 280 304 180 325 334 317 340 356 347 348 9 36 21 52 52 46 54 61 49 46 56 59
326 325 332 328 335 326 313 325 43 236 224 54 63 320 338 4 78 69 91 0 20 342 201 357 107 313 295 332 334 41 295 317 235 257 319 62 342 29 11 240 73 339 341 329 58 69 6 286 40 10 357 29 14 348 359 22 342 324 275 221 258 264 295 310 322 343 359 343 58 38 350 318 311 327 334 323 17 28 2 49 40 45 40 39 41 29 24 37
220 268 290 319 324 332 292 45 245 293 48 227 203 308 316 337 24 258 100 89 19 279 14 341 148 330 159 329 34 169 88 41 248 255 96 154 165 112 353 8 78 352 338 20 59 138 167 324 34 327 3 347 24 22 315 74 353 4 296 177 267 281 307 334 340 17 351 345 291 70 130 268 328 312 298 334 34 17 6 29 4 29 43 47 46 34 29 22
218 212 216 298 342 313 59 230 238 52 352 290 317 320 311 328 3 50 62 359 26 340 22 251 58 284 71 308 342 99 45 305 327 2 21 1 21 264 77 336 8 5 132 297 45 326 32 352 8 12 28 29 25 11 318 43 27 306 242 344 307 316 316 315 57 140 236 252 285 58 149 186 303 292 260 323 61 14 11 358 351 333 10 47 37 29 24 11
193 193 175 234 284 61 158 130 28 120 209 273 326 310 312 312 318 55 78 62 349 347 14 320 77 304 46 314 25 81 167 292 35 346 92 310 32 344 77 36 46 303 312 68 35 285 56 343 31 4 33 35 15 266 276 81 338 256 269 75 302 286 290 259 221 233 234 47 323 335 7 11 259 268 306 28 40 354 339 311 303 313 314 340 13 356 358 358
176 161 159 183 135 210 85 133 146 233 311 296 317 314 312 325 83 100 128 98 260 53 183 333 251 16 337 360 37 27 342 3 100 277 335 61 22 191 27 354 83 355 352 79 3 302 350 113 262 103 70 352 266 268 261 125 350 275 275 288 268 305 193 187 182 170 331 65 310 287 285 291 282 287 325 329 71 341 267 277 303 309 320 329 334 325 338 359
155 156 138 140 92 39 10 52 73 252 334 327 310 317 303 52 39 36 22 54 301 324 2 276 56 300 19 23 325 2 27 342 12 312 26 77 340 22 87 134 58 34 14 358 93 198 255 274 187 79 102 229 267 280 236 224 228 288 341 343 331 29 48 13 85 80 50 20 260 236 275 121 312 286 280 27 256 229 262 284 281 299 319 320 311 321 344 331
128 140 140 90 123 198 91 333 318 326 325 311 326 342 66 36 96 103 69 246 46 292 4 18 337 8 23 32 351 335 14 341 347 38 348 3 10 37 13 17 17 37 35 358 356 351 350 348 36 284 193 302 167 318 343 356 73 24 8 343 349 352 8 24 339 43 57 299 257 246 202 168 256 297 297 247 286 249 197 243 271 300 272 273 297 312 336 1
96 82 80 77 126 26 137 247 306 317 326 334 358 59 74 18 11 64 175 326 78 313 45 303 319 8 343 335 60 340 341 327 5 34 34 30 36 32 10 53 340 8 6 15 337 352 16 0 283 305 233 62 325 14 317 11 11 20 8 15 45 312 22 340 12 5 330 246 275 269 12 350 238 216 265 286 240 246 235 205 236 252 258 279 289 344 357 348
102 97 68 44 56 40 54 241 285 314 339 358 60 53 56 92 57 317 342 336 128 27 298 152 267 345 304 36 358 336 307 42 321 28 74 18 83 46 46 56 347 91 328 323 349 9 288 290 330 310 20 299 70 31 331 2 338 3 31 38 58 9 20 327 285 249 308 293 257 308 132 221 260 291 247 233 241 219 220 230 223 225 245 162 19 5 7 357
101 83 71 59 84 127 203 273 258 0 24 49 72 32 57 58 41 302 307 320 276 355 341 19 317 342 42 73 319 357 12 288 36 340 41 348 45 24 337 12 30 3 84 305 53 346 21 348 314 27 349 0 55 118 208 223 305 271 206 123 168 130 132 305 288 334 290 266 301 324 92 235 332 249 264 248 225 230 237 247 284 287 272 186 352 14 8 359
63 87 112 89 50 23 131 223 283 80 57 68 54 78 84 124 155 335 320 318 320 331 300 323 334 41 343 26 312 360 102 310 23 43 26 52 0 42 0 342 344 55 261 80 312 72 307 243 258 215 247 56 311 251 127 16 357 258 170 95 55 269 143 192 207 249 279 311 318 322 246 223 286 256 280 340 302 293 283 290 298 295 356 11 14 357 339 338
30 73 80 38 42 305 118 293 339 80 87 60 79 41 72 160 311 55 336 212 286 11 310 344 51 37 335 332 316 27 312 51 317 64 2 78 121 50 299 311 1 7 26 59 251 15 12 314 270 327 50 175 202 23 280 153 28 294 48 1 271 189 142 299 326 250 312 4 259 216 320 307 300 309 290 348 320 310 348 339 339 335 317 8 354 324 329 320
72 10 38 335 11 298 179 107 33 80 63 90 84 65 176 343 190 214 319 53 261 265 349 73 335 55 349 331 319 346 315 37 339 68 357 64 2 13 348 317 198 18 82 122 325 178 92 277 300 76 324 276 200 168 233 275 164 51 11 263 295 113 128 124 247 324 27 100 277 356 271 304 29 300 310 336 323 308 314 308 287 287 293 339 310 301 300 311
61 63 118 47 313 287 179 84 19 47 74 73 62 113 350 90 220 177 235 3 19 329 65 75 288 87 343 54 341 349 320 79 322 35 351 18 169 68 64 329 300 84 325 324 135 284 96 330 296 256 231 267 353 44 355 303 20 195 230 203 46 330 355 313 87 339 331 311 283 292 293 273 208 257 318 303 301 299 306 315 304 291 305 301 295 298 295 303
63 80 25 319 301 305 239 111 67 65 66 65 44 79 339 153 266 166 225 178 180 119 75 335 147 336 111 40 264 298 341 37 314 19 60 350 57 68 100 184 283 14 344 20 173 285 6 199 296 301 37 303 5 65 322 289 322 344 350 358 276 110 207 138 214 190 130 257 7 285 332 281 222 221 221 268 284 289 292 306 290 269 278 289 292 295 295 320
51 39 13 275 314 312 344 83 62 46 60 85 155 88 187 95 252 263 213 190 306 79 1 43 335 6 16 186 119 7 302 20 13 296 91 300 33 25 91 360 277 313 342 311 199 253 288 127 261 278 289 6 357 324 251 273 314 327 27 326 342 257 221 166 284 155 183 207 209 266 308 274 264 205 237 282 288 285 280 284 309 310 281 279 280 281 306 334
59 99 260 310 335 339 35 44 39 33 79 56 79 124 25 152 319 290 229 194 312 299 143 147 94 91 258 11 346 255 316 332 323 27 130 327 55 335 163 57 96 308 332 15 53 339 22 1 221 309 346 355 269 214 221 189 171 203 188 231 202 262 316 346 288 23 35 119 246 249 269 281 271 276 266 271 277 301 300 325 326 328 316 283 290 298 312 344
78 52 287 322 338 54 73 57 6 56 87 60 71 148 67 157 50 313 358 331 87 215 358 101 61 120 23 173 211 310 351 331 314 57 297 73 345 101 228 170 223 202 33 303 295 249 131 199 103 296 239 271 271 296 186 138 175 203 150 266 184 161 118 140 254 279 340 245 199 210 259 268 265 284 260 261 286 315 324 328 321 320 311 295 301 308 326 353
49 123 260 336 338 73 74 57 353 36 67 199 282 16 15 51 125 244 61 339 43 37 12 56 207 79 215 150 319 335 141 269 40 283 249 351 242 215 212 285 275 312 154 305 18 290 31 86 341 266 282 274 286 328 137 97 163 327 291 238 49 257 182 190 202 210 266 293 275 284 206 266 286 237 284 322 329 321 308 320 311 314 308 307 321 334 356 358
122 82 348 341 25 94 75 109 88 62 88 311 68 113 351 134 69 1 27 332 89 351 103 292 326 125 256 121 136 332 287 39 263 69 344 306 284 164 231 249 268 197 131 276 112 307 38 286 98 324 349 326 333 351 26 205 112 206 264 251 210 169 78 194 143 59 269 246 224 163 259 272 279 10 322 321 325 323 324 324 331 322 315 330 349 1 3 3
100 352 45 330 5 56 91 176 129 142 175 130 99 41 4 15 159 168 151 348 332 170 96 329 204 236 304 220 234 245 304 104 298 335 71 243 267 158 276 244 247 207 179 317 331 316 150 240 84 23 336 333 323 329 320 327 325 315 292 132 9 139 202 0 286 299 207 270 162 207 250 261 289 315 312 313 317 320 327 325 337 324 343 8 8 8 12 14
40 93 320 9 15 38 58 63 102 124 121 118 51 333 88 58 337 307 125 324 195 269 179 260 5 70 345 34 11 5 329 328 165 280 32 312 305 287 216 236 236 214 172 230 322 51 196 296 154 164 160 216 249 245 258 272 315 309 291 300 289 227 257 209 213 158 238 260 271 253 256 285 294 300 308 310 328 329 328 338 345 4 13 10 10 10 9 8
128 73 30 42 340 45 54 21 47 61 129 149 91 207 24 33 256 331 190 5 232 150 338 72 8 52 331 54 14 326 293 337 343 36 256 263 254 260 267 209 333 262 198 34 201 102 72 323 248 207 222 235 248 261 272 281 265 277 286 284 288 301 200 206 207 249 217 41 274 271 277 282 291 304 321 337 346 350 350 1 9 12 10 5 2 7 5 2
72 233 103 207 119 272 35 4 43 77 28 73 106 91 45 40 22 78 320 287 350 353 110 340 37 47 44 68 125 356 324 321 6 259 334 225 327 323 0 111 87 135 127 346 165 119 133 251 277 150 250 253 263 265 273 280 259 251 265 272 286 299 304 264 252 251 254 236 260 272 286 293 302 352 358 4 6 360 357 360 14 9 8 8 6 1 354 351
114 142 105 356 81 234 158 168 86 90 66 75 92 69 52 81 67 227 163 323 23 350 45 5 335 335 321 311 117 256 312 28 322 287 257 307 3 329 341 347 92 66 76 331 304 192 65 254 247 201 258 265 271 266 266 260 275 285 273 276 285 289 281 273 270 269 243 238 254 273 281 289 11 4 352 355 358 357 352 354 9 6 6 1 357 351 349 342
178 112 79 18 83 117 209 26 80 57 65 21 91 314 141 178 191 323 13 68 0 320 6 77 302 316 303 304 160 42 239 196 234 285 266 53 316 151 241 213 273 317 41 240 66 293 103 280 3 332 333 292 285 268 270 233 264 292 286 296 307 295 291 280 263 283 305 266 272 289 305 345 1 354 346 343 349 352 354 358 2 343 352 348 348 345 336 333
160 156 151 118 67 339 24 28 51 80 60 349 74 265 69 307 179 174 273 158 134 297 7 297 293 316 329 5 100 264 257 212 213 226 234 204 245 238 82 294 88 307 344 355 14 318 58 266 23 39 348 302 305 335 304 305 296 273 286 299 313 328 326 327 331 338 20 348 11 13 7 350 345 347 336 347 353 352 350 344 336 331 334 343 342 335 327 326
72 24 80 103 82 340 73 341 16 63 24 263 140 258 136 244 221 102 35 268 146 202 195 281 291 37 318 4 296 280 297 233 256 257 245 236 278 286 254 250 61 39 319 295 223 281 172 19 345 348 332 286 296 334 323 318 327 344 356 342 338 313 329 337 8 50 48 23 33 15 344 335 335 342 340 354 349 339 339 341 328 319 330 334 324 317 319 317